Terug naar catalogus

CZ-6A DEB

ActiefPO
NORAD 54988·DEBRIS·🇨🇳 China

Gelanceerd Nov 11, 2022 vanaf Taiyuan Satellite Launch Center

Loading…

Volgende Passages (komende 24 uur)

TLE

VersSource: Space-Track

Epoch: Sep 14, 2026, 08:11 UTC

1 54988U 22151UD  26257.34162393  .00005686  00000-0  12186-2 0  9993
2 54988  99.1313  29.9723 0069091 112.8868 247.9641 14.57642732201189

Volg CZ-6A DEB in realtime met AllMySat

Download on the App Store